Time,TemperatureF,DewpointF,PressureIn,WindDirection,WindDirectionDegrees,WindSpeedMPH,WindSpeedGustMPH,Humidity,HourlyPrecipIn,Conditions,Clouds,dailyrainin,SoftwareType,DateUTC
2013-05-02 00:01:00,29.0,25.0,-100.00,SSE,150,4.0,6.0,85,0.00,,,-99.99,,2013-05-02 06:01:00,
2013-05-02 00:12:00,28.0,25.0,-100.00,South,170,4.0,4.0,85,0.00,,,-99.99,,2013-05-02 06:12:00,
2013-05-02 00:21:00,28.0,25.0,-100.00,South,170,4.0,4.0,85,0.00,,,-99.99,,2013-05-02 06:21:00,
2013-05-02 00:31:00,28.0,25.0,-100.00,SSE,165,1.0,5.0,86,0.00,,,-99.99,,2013-05-02 06:31:00,
2013-05-02 00:42:00,28.0,25.0,-100.00,SSW,195,1.0,6.0,86,0.00,,,-99.99,,2013-05-02 06:42:00,
2013-05-02 00:52:00,28.0,24.0,-100.00,SSE,160,1.0,4.0,86,0.00,,,-99.99,,2013-05-02 06:52:00,
2013-05-02 01:02:00,26.0,23.0,-100.00,South,185,1.0,4.0,86,0.00,,,-99.99,,2013-05-02 07:02:00,
2013-05-02 01:11:00,27.0,24.0,-100.00,South,175,0.0,2.0,86,0.00,,,-99.99,,2013-05-02 07:11:00,
2013-05-02 01:21:00,27.0,24.0,-100.00,SSE,160,2.0,4.0,86,0.00,,,-99.99,,2013-05-02 07:21:00,
2013-05-02 01:32:00,26.0,23.0,-100.00,SW,220,2.0,3.0,86,0.00,,,-99.99,,2013-05-02 07:32:00,
2013-05-02 01:42:00,26.0,23.0,-100.00,SE,135,1.0,3.0,86,0.00,,,-99.99,,2013-05-02 07:42:00,
2013-05-02 01:52:00,26.0,23.0,-100.00,SSE,160,4.0,5.0,87,0.00,,,-99.99,,2013-05-02 07:52:00,
2013-05-02 02:02:00,26.0,23.0,-100.00,South,180,3.0,4.0,87,0.00,,,-99.99,,2013-05-02 08:02:00,
2013-05-02 02:11:00,25.0,22.0,-100.00,South,185,3.0,4.0,87,0.00,,,-99.99,,2013-05-02 08:11:00,
2013-05-02 02:22:00,26.0,22.0,-100.00,South,170,3.0,4.0,87,0.00,,,-99.99,,2013-05-02 08:22:00,
2013-05-02 02:32:00,25.0,22.0,-100.00,South,175,2.0,4.0,88,0.00,,,-99.99,,2013-05-02 08:32:00,
2013-05-02 02:42:00,24.0,21.0,-100.00,South,185,3.0,5.0,88,0.00,,,-99.99,,2013-05-02 08:42:00,
2013-05-02 02:52:00,24.0,21.0,-100.00,South,175,2.0,6.0,88,0.00,,,-99.99,,2013-05-02 08:52:00,
2013-05-02 03:02:00,24.0,21.0,-100.00,South,175,2.0,6.0,88,0.00,,,-99.99,,2013-05-02 09:02:00,
2013-05-02 03:12:00,24.0,21.0,-100.00,South,180,2.0,6.0,88,0.00,,,-99.99,,2013-05-02 09:12:00,
2013-05-02 03:21:00,23.0,20.0,-100.00,South,190,3.0,4.0,88,0.00,,,-99.99,,2013-05-02 09:21:00,
2013-05-02 03:32:00,23.0,20.0,-100.00,South,185,3.0,6.0,89,0.00,,,-99.99,,2013-05-02 09:32:00,
2013-05-02 03:42:00,23.0,20.0,-100.00,SSE,165,3.0,6.0,89,0.00,,,-99.99,,2013-05-02 09:42:00,
2013-05-02 03:52:00,22.0,20.0,-100.00,SSE,165,4.0,5.0,89,0.00,,,-99.99,,2013-05-02 09:52:00,
2013-05-02 04:02:00,22.0,20.0,-100.00,SSE,160,6.0,6.0,90,0.00,,,-99.99,,2013-05-02 10:02:00,
2013-05-02 04:12:00,22.0,20.0,-100.00,SSE,160,5.0,7.0,90,0.00,,,-99.99,,2013-05-02 10:12:00,
2013-05-02 04:22:00,22.0,19.0,-100.00,South,175,0.0,6.0,90,0.00,,,-99.99,,2013-05-02 10:22:00,
2013-05-02 04:33:00,22.0,19.0,-100.00,South,170,2.0,5.0,90,0.00,,,-99.99,,2013-05-02 10:33:00,
2013-05-02 04:42:00,20.0,18.0,-100.00,South,180,4.0,6.0,90,0.00,,,-99.99,,2013-05-02 10:42:00,
2013-05-02 04:52:00,21.0,19.0,-100.00,SSE,165,3.0,6.0,90,0.00,,,-99.99,,2013-05-02 10:52:00,
2013-05-02 05:02:00,21.0,19.0,-100.00,SSE,165,2.0,5.0,90,0.00,,,-99.99,,2013-05-02 11:02:00,
2013-05-02 05:12:00,21.0,19.0,-100.00,SSE,160,4.0,6.0,90,0.00,,,-99.99,,2013-05-02 11:12:00,
2013-05-02 05:22:00,21.0,19.0,-100.00,SSE,165,6.0,7.0,90,0.00,,,-99.99,,2013-05-02 11:22:00,
2013-05-02 05:32:00,20.0,19.0,-100.00,SSE,160,4.0,6.0,91,0.00,,,-99.99,,2013-05-02 11:32:00,
2013-05-02 05:42:00,20.0,18.0,-100.00,South,170,5.0,7.0,91,0.00,,,-99.99,,2013-05-02 11:42:00,
2013-05-02 05:52:00,20.0,18.0,-100.00,SSE,160,4.0,9.0,91,0.00,,,-99.99,,2013-05-02 11:52:00,
2013-05-02 06:01:00,20.0,18.0,-100.00,SSE,160,3.0,6.0,91,0.00,,,-99.99,,2013-05-02 12:01:00,
2013-05-02 06:11:00,20.0,18.0,-100.00,SSE,160,2.0,6.0,91,0.00,,,-99.99,,2013-05-02 12:11:00,
2013-05-02 06:21:00,20.0,18.0,-100.00,SSE,165,5.0,6.0,91,0.00,,,-99.99,,2013-05-02 12:21:00,
2013-05-02 06:32:00,20.0,18.0,-100.00,South,185,2.0,6.0,91,0.00,,,-99.99,,2013-05-02 12:32:00,
2013-05-02 06:42:00,20.0,18.0,-100.00,South,170,3.0,6.0,91,0.00,,,-99.99,,2013-05-02 12:42:00,
2013-05-02 06:52:00,20.0,18.0,-100.00,SSE,160,7.0,9.0,91,0.00,,,-99.99,,2013-05-02 12:52:00,
2013-05-02 07:01:00,20.0,18.0,-100.00,SSE,160,3.0,9.0,91,0.00,,,-99.99,,2013-05-02 13:01:00,
2013-05-02 07:11:00,20.0,18.0,-100.00,SSE,155,6.0,7.0,91,0.00,,,-99.99,,2013-05-02 13:11:00,
2013-05-02 07:21:00,22.0,20.0,-100.00,SSE,160,6.0,7.0,91,0.00,,,-99.99,,2013-05-02 13:21:00,
2013-05-02 07:32:00,24.0,22.0,-100.00,SSE,160,4.0,6.0,91,0.00,,,-99.99,,2013-05-02 13:32:00,
2013-05-02 07:42:00,23.0,21.0,-100.00,SSE,155,4.0,7.0,91,0.00,,,-99.99,,2013-05-02 13:42:00,
2013-05-02 07:52:00,23.0,21.0,-100.00,SSE,160,4.0,7.0,89,0.00,,,-99.99,,2013-05-02 13:52:00,
2013-05-02 08:02:00,24.0,21.0,-100.00,ESE,115,4.0,6.0,86,0.00,,,-99.99,,2013-05-02 14:02:00,
2013-05-02 08:11:00,26.0,21.0,-100.00,SSE,160,4.0,6.0,82,0.00,,,-99.99,,2013-05-02 14:11:00,
2013-05-02 08:22:00,28.0,22.0,-100.00,SSE,160,3.0,5.0,79,0.00,,,-99.99,,2013-05-02 14:22:00,
2013-05-02 08:32:00,30.0,23.0,-100.00,South,175,3.0,6.0,74,0.00,,,-99.99,,2013-05-02 14:32:00,
2013-05-02 08:42:00,31.0,22.0,-100.00,ESE,105,2.0,6.0,68,0.00,,,-99.99,,2013-05-02 14:42:00,
2013-05-02 08:52:00,34.0,22.0,-100.00,SE,145,0.0,4.0,62,0.00,,,-99.99,,2013-05-02 14:52:00,
2013-05-02 09:02:00,32.0,19.0,-100.00,NW,325,4.0,6.0,57,0.00,,,-99.99,,2013-05-02 15:02:00,
2013-05-02 09:12:00,32.0,18.0,-100.00,West,280,2.0,5.0,55,0.00,,,-99.99,,2013-05-02 15:12:00,
2013-05-02 09:22:00,33.0,19.0,-100.00,NW,320,4.0,6.0,54,0.00,,,-99.99,,2013-05-02 15:22:00,
2013-05-02 09:33:00,34.0,19.0,-100.00,NNW,330,3.0,6.0,54,0.00,,,-99.99,,2013-05-02 15:33:00,
2013-05-02 09:43:00,34.0,18.0,-100.00,WNW,285,9.0,11.0,51,0.00,,,-99.99,,2013-05-02 15:43:00,
2013-05-02 10:02:00,36.0,19.0,-100.00,NNW,345,4.0,9.0,48,0.00,,,-99.99,,2013-05-02 16:02:00,
2013-05-02 10:13:00,37.0,18.0,-100.00,NNW,340,3.0,8.0,46,0.00,,,-99.99,,2013-05-02 16:13:00,
2013-05-02 10:22:00,37.0,17.0,-100.00,NW,325,3.0,6.0,44,0.00,,,-99.99,,2013-05-02 16:22:00,
2013-05-02 10:32:00,38.0,17.0,-100.00,North,355,2.0,7.0,41,0.00,,,-99.99,,2013-05-02 16:32:00,
2013-05-02 10:43:00,39.0,16.0,-100.00,North,0,3.0,6.0,38,0.00,,,-99.99,,2013-05-02 16:43:00,
2013-05-02 10:52:00,40.0,15.0,-100.00,NNE,15,1.0,6.0,35,0.00,,,-99.99,,2013-05-02 16:52:00,
2013-05-02 11:02:00,40.0,14.0,-100.00,NW,315,4.0,11.0,34,0.00,,,-99.99,,2013-05-02 17:02:00,
2013-05-02 11:12:00,41.0,14.0,-100.00,West,275,3.0,8.0,33,0.00,,,-99.99,,2013-05-02 17:12:00,
2013-05-02 11:22:00,40.0,12.0,-100.00,West,280,6.0,8.0,30,0.00,,,-99.99,,2013-05-02 17:22:00,
2013-05-02 11:32:00,40.0,11.0,-100.00,NW,305,1.0,7.0,29,0.00,,,-99.99,,2013-05-02 17:32:00,
2013-05-02 11:42:00,40.0,11.0,-100.00,West,280,2.0,8.0,29,0.00,,,-99.99,,2013-05-02 17:42:00,
2013-05-02 11:52:00,42.0,11.0,-100.00,WNW,290,6.0,9.0,27,0.00,,,-99.99,,2013-05-02 17:52:00,
2013-05-02 12:01:00,42.0,10.0,-100.00,WNW,295,6.0,9.0,26,0.00,,,-99.99,,2013-05-02 18:01:00,
2013-05-02 12:11:00,42.0,10.0,-100.00,WSW,250,4.0,7.0,26,0.00,,,-99.99,,2013-05-02 18:11:00,
2013-05-02 12:21:00,45.0,11.0,-100.00,East,100,4.0,9.0,24,0.00,,,-99.99,,2013-05-02 18:21:00,
2013-05-02 12:32:00,43.0,9.0,-100.00,East,80,3.0,9.0,24,0.00,,,-99.99,,2013-05-02 18:32:00,
2013-05-02 12:42:00,43.0,9.0,-100.00,East,80,3.0,9.0,24,0.00,,,-99.99,,2013-05-02 18:42:00,
2013-05-02 12:52:00,44.0,8.0,-100.00,West,280,9.0,12.0,22,0.00,,,-99.99,,2013-05-02 18:52:00,
2013-05-02 13:01:00,43.0,7.0,-100.00,SSW,210,6.0,14.0,22,0.00,,,-99.99,,2013-05-02 19:01:00,
2013-05-02 13:11:00,44.0,8.0,-100.00,West,260,2.0,13.0,22,0.00,,,-99.99,,2013-05-02 19:11:00,
2013-05-02 13:21:00,43.0,7.0,-100.00,West,280,2.0,19.0,21,0.00,,,-99.99,,2013-05-02 19:21:00,
2013-05-02 13:32:00,43.0,6.0,-100.00,WNW,300,6.0,12.0,21,0.00,,,-99.99,,2013-05-02 19:32:00,
2013-05-02 13:42:00,44.0,6.0,-100.00,SE,135,5.0,11.0,20,0.00,,,-99.99,,2013-05-02 19:42:00,
2013-05-02 13:52:00,46.0,8.0,-100.00,NW,315,6.0,11.0,20,0.00,,,-99.99,,2013-05-02 19:52:00,
2013-05-02 14:02:00,45.0,6.0,-100.00,WNW,295,9.0,15.0,20,0.00,,,-99.99,,2013-05-02 20:02:00,
2013-05-02 14:11:00,46.0,7.0,-100.00,NW,305,3.0,9.0,19,0.00,,,-99.99,,2013-05-02 20:11:00,
2013-05-02 14:22:00,46.0,7.0,-100.00,West,270,9.0,14.0,20,0.00,,,-99.99,,2013-05-02 20:22:00,
2013-05-02 14:32:00,46.0,7.0,-100.00,NW,305,4.0,16.0,20,0.00,,,-99.99,,2013-05-02 20:32:00,
2013-05-02 14:41:00,46.0,7.0,-100.00,NW,305,4.0,16.0,20,0.00,,,-99.99,,2013-05-02 20:41:00,
2013-05-02 14:52:00,47.0,8.0,-100.00,NW,305,7.0,12.0,20,0.00,,,-99.99,,2013-05-02 20:52:00,
2013-05-02 15:01:00,47.0,8.0,-100.00,West,280,8.0,14.0,19,0.00,,,-99.99,,2013-05-02 21:01:00,
2013-05-02 15:11:00,47.0,7.0,-100.00,NE,40,2.0,11.0,18,0.00,,,-99.99,,2013-05-02 21:11:00,
2013-05-02 15:21:00,48.0,8.0,-100.00,WNW,300,6.0,14.0,18,0.00,,,-99.99,,2013-05-02 21:21:00,
2013-05-02 15:33:00,48.0,7.0,-100.00,WNW,295,4.0,11.0,18,0.00,,,-99.99,,2013-05-02 21:33:00,
2013-05-02 15:42:00,50.0,9.0,-100.00,SSE,150,1.0,6.0,18,0.00,,,-99.99,,2013-05-02 21:42:00,
2013-05-02 15:53:00,51.0,10.0,-100.00,South,170,4.0,8.0,18,0.00,,,-99.99,,2013-05-02 21:53:00,
2013-05-02 16:02:00,49.0,8.0,-100.00,NW,315,3.0,12.0,18,0.00,,,-99.99,,2013-05-02 22:02:00,
2013-05-02 16:12:00,50.0,8.0,-100.00,West,280,3.0,7.0,18,0.00,,,-99.99,,2013-05-02 22:12:00,
2013-05-02 16:22:00,49.0,8.0,-100.00,WSW,245,4.0,12.0,18,0.00,,,-99.99,,2013-05-02 22:22:00,
2013-05-02 16:32:00,52.0,10.0,-100.00,ENE,65,1.0,4.0,18,0.00,,,-99.99,,2013-05-02 22:32:00,
2013-05-02 16:42:00,52.0,9.0,-100.00,NW,305,1.0,4.0,17,0.00,,,-99.99,,2013-05-02 22:42:00,
2013-05-02 16:52:00,51.0,8.0,-100.00,West,265,4.0,10.0,17,0.00,,,-99.99,,2013-05-02 22:52:00,
2013-05-02 17:02:00,51.0,8.0,-100.00,WNW,285,9.0,15.0,17,0.00,,,-99.99,,2013-05-02 23:02:00,
2013-05-02 17:11:00,50.0,7.0,-100.00,WNW,285,7.0,14.0,17,0.00,,,-99.99,,2013-05-02 23:11:00,
2013-05-02 17:22:00,50.0,7.0,-100.00,West,280,4.0,11.0,16,0.00,,,-99.99,,2013-05-02 23:22:00,
2013-05-02 17:32:00,51.0,7.0,-100.00,WNW,290,3.0,11.0,16,0.00,,,-99.99,,2013-05-02 23:32:00,
2013-05-02 17:42:00,50.0,8.0,-100.00,West,270,6.0,12.0,17,0.00,,,-99.99,,2013-05-02 23:42:00,
2013-05-02 17:51:00,50.0,7.0,-100.00,WSW,245,2.0,12.0,17,0.00,,,-99.99,,2013-05-02 23:51:00,
2013-05-02 18:01:00,52.0,8.0,-100.00,WSW,255,1.0,7.0,16,0.00,,,-99.99,,2013-05-03 00:01:00,
2013-05-02 18:11:00,50.0,8.0,-100.00,WNW,285,7.0,9.0,17,0.00,,,-99.99,,2013-05-03 00:11:00,
2013-05-02 18:21:00,50.0,8.0,-100.00,WSW,255,3.0,9.0,17,0.00,,,-99.99,,2013-05-03 00:21:00,
2013-05-02 18:31:00,50.0,8.0,-100.00,SW,215,4.0,9.0,18,0.00,,,-99.99,,2013-05-03 00:31:00,
2013-05-02 18:41:00,51.0,9.0,-100.00,WSW,240,6.0,7.0,17,0.00,,,-99.99,,2013-05-03 00:41:00,
2013-05-02 18:52:00,52.0,10.0,-100.00,SW,215,3.0,6.0,17,0.00,,,-99.99,,2013-05-03 00:52:00,
2013-05-02 19:01:00,49.0,9.0,-100.00,SW,235,2.0,6.0,18,0.00,,,-99.99,,2013-05-03 01:01:00,
2013-05-02 19:11:00,46.0,10.0,-100.00,SSW,200,0.0,4.0,21,0.00,,,-99.99,,2013-05-03 01:11:00,
2013-05-02 19:21:00,45.0,10.0,-100.00,South,190,1.0,2.0,23,0.00,,,-99.99,,2013-05-03 01:21:00,
2013-05-02 19:31:00,43.0,11.0,-100.00,South,190,4.0,6.0,26,0.00,,,-99.99,,2013-05-03 01:31:00,
2013-05-02 19:42:00,42.0,12.0,-100.00,South,170,1.0,5.0,28,0.00,,,-99.99,,2013-05-03 01:42:00,
2013-05-02 19:52:00,41.0,12.0,-100.00,SSE,160,0.0,3.0,30,0.00,,,-99.99,,2013-05-03 01:52:00,
2013-05-02 20:01:00,41.0,13.0,-100.00,SE,145,2.0,4.0,31,0.00,,,-99.99,,2013-05-03 02:01:00,
2013-05-02 20:11:00,41.0,13.0,-100.00,SSE,150,1.0,4.0,31,0.00,,,-99.99,,2013-05-03 02:11:00,
2013-05-02 20:21:00,40.0,14.0,-100.00,ESE,110,1.0,5.0,33,0.00,,,-99.99,,2013-05-03 02:21:00,
2013-05-02 20:32:00,40.0,15.0,-100.00,ENE,60,1.0,6.0,35,0.00,,,-99.99,,2013-05-03 02:32:00,
2013-05-02 20:42:00,39.0,15.0,-100.00,SSE,155,5.0,6.0,37,0.00,,,-99.99,,2013-05-03 02:42:00,
2013-05-02 20:52:00,37.0,16.0,-100.00,South,170,4.0,7.0,42,0.00,,,-99.99,,2013-05-03 02:52:00,
2013-05-02 21:01:00,35.0,17.0,-100.00,SSE,155,4.0,5.0,47,0.00,,,-99.99,,2013-05-03 03:01:00,
2013-05-02 21:11:00,34.0,18.0,-100.00,South,175,2.0,6.0,51,0.00,,,-99.99,,2013-05-03 03:11:00,
2013-05-02 21:21:00,34.0,19.0,-100.00,South,175,0.0,0.0,54,0.00,,,-99.99,,2013-05-03 03:21:00,
2013-05-02 21:33:00,34.0,20.0,-100.00,East,95,3.0,6.0,57,0.00,,,-99.99,,2013-05-03 03:33:00,
2013-05-02 21:42:00,34.0,20.0,-100.00,SSE,160,2.0,4.0,57,0.00,,,-99.99,,2013-05-03 03:42:00,
2013-05-02 21:52:00,32.0,20.0,-100.00,SE,145,4.0,6.0,58,0.00,,,-99.99,,2013-05-03 03:52:00,
2013-05-02 22:03:00,32.0,20.0,-100.00,SSE,150,4.0,6.0,61,0.00,,,-99.99,,2013-05-03 04:03:00,
2013-05-02 22:12:00,33.0,21.0,-100.00,SSE,150,5.0,6.0,61,0.00,,,-99.99,,2013-05-03 04:12:00,
2013-05-02 22:22:00,32.0,20.0,-100.00,SSE,150,6.0,7.0,61,0.00,,,-99.99,,2013-05-03 04:22:00,
2013-05-02 22:32:00,32.0,20.0,-100.00,SSE,155,4.0,6.0,60,0.00,,,-99.99,,2013-05-03 04:32:00,
2013-05-02 22:42:00,31.0,19.0,-100.00,SSE,160,2.0,5.0,60,0.00,,,-99.99,,2013-05-03 04:42:00,
2013-05-02 22:52:00,30.0,19.0,-100.00,SE,145,4.0,6.0,62,0.00,,,-99.99,,2013-05-03 04:52:00,
2013-05-02 23:02:00,31.0,20.0,-100.00,SSE,155,6.0,6.0,63,0.00,,,-99.99,,2013-05-03 05:02:00,
2013-05-02 23:12:00,30.0,20.0,-100.00,SSE,150,4.0,7.0,64,0.00,,,-99.99,,2013-05-03 05:12:00,
2013-05-02 23:21:00,30.0,20.0,-100.00,SSE,150,2.0,7.0,65,0.00,,,-99.99,,2013-05-03 05:21:00,
2013-05-02 23:32:00,30.0,20.0,-100.00,SSE,160,4.0,6.0,66,0.00,,,-99.99,,2013-05-03 05:32:00,
2013-05-02 23:42:00,29.0,20.0,-100.00,SSE,160,6.0,6.0,68,0.00,,,-99.99,,2013-05-03 05:42:00,
2013-05-02 23:52:00,28.0,19.0,-100.00,SSE,160,6.0,7.0,68,0.00,,,-99.99,,2013-05-03 05:52:00,